User: anonymous   Login
Location: Vancouver
(49.2500°N, 123.1330°W)
Time: 00:49:38
(UTC-07:00)
Language:

Cosmos 676 Rocket - Orbit

View from above orbital plane
View from above orbital plane
View from above satellite
View from above satellite

Ground track
Ground track

The orbit data is extracted from the following two-line orbital elements,

1  7434U 74071B   15245.67112916 +.00000073 +00000-0 +33733-4 0  9990
2  7434 074.0493 334.0587 0020100 043.5397 316.7338 14.36495647142592
Epoch (UTC): 02 September 2015 16:06:25
Eccentricity: 0.0020100
inclination: 74.0493°
perigee height: 756 km
apogee height: 784 km
right ascension of ascending node: 334.0587°
argument of perigee: 43.5397°
revolutions per day: 14.36495647
mean anomaly at epoch: 316.7338°
orbit number at epoch: 14259

The dashed part of the orbit path shows where the satellite is in the earth's shadow,  

DLR